{"data":{"norad_id":68872,"epoch":"2026-09-20T00:47:00.191040Z","epoch_age_seconds":55757,"freshness":"FRESH","line1":"1 68872U 26095J   26263.03264110 -.00000728  00000+0 -66463-4 0  9996","line2":"2 68872  51.9025 171.3215 0000803  91.0078 269.0976 14.79925802 21932","mean_motion":14.79925802,"eccentricity":8.03e-5,"inclination_deg":51.9025,"raan_deg":171.3215,"arg_perigee_deg":91.0078,"mean_anomaly_deg":269.0976,"bstar":-6.6463e-5,"rev_number":2193,"period_min":97.302175423522,"perigee_km":628.99563363269,"apogee_km":630.12106950615,"semimajor_km":7007.6953515694,"source":"CELESTRAK","updated_at":"2026-09-20T09:00:24.533913Z"}}